Location: Czu?�w
(50.1404°N, 18.9919°E)
Time: 05:19:40
(UTC+00:00)

Cosmos 1302 Rocket - Pass Details

Date: 27 October 2020
Orbit: 756 x 777 km, 74.0° (Epoch: 25 November)

Event Time Altitude Azimuth Distance (km) Brightness Sun altitude
Rises 16:29:55 0° 185° (S) 3,225 7.4 -10.3°
Reaches altitude 10° 16:32:20 10° 180° (S) 2,307 6.6 -10.7°
Maximum altitude 16:37:22 49° 106° (ESE) 991 4.2 -11.5°
Drops below altitude 10° 16:42:27 10° 33° (NNE) 2,334 6.1 -12.3°
Sets 16:44:54 0° 28° (NNE) 3,268 6.9 -12.7°
